Location: Corcelles
(46.1547°N, 4.7234°E)
Time: 04:34:38
(UTC+00:00)

Nadezhda 4 Rocket - Pass Details

Date: 14 July 2020
Orbit: 951 x 991 km, 82.9° (Epoch: 06 August)

Event Time Altitude Azimuth Distance (km) Brightness Sun altitude
Rises 03:05:05 0° 352° (N) 3,711 7.6 -8.8°
Reaches altitude 10° 03:07:38 10° 354° (N) 2,761 6.9 -8.5°
Maximum altitude 03:13:59 78° 80° (E) 1,017 4.3 -7.7°
Drops below altitude 10° 03:20:18 10° 168° (SSE) 2,744 6.1 -6.8°
Sets 03:22:49 0° 170° (S) 3,686 6.7 -6.5°
